sat.trackr.live / text

‹ back to catalog

STARLINK-2635

NORAD 48355 · 2021-038C

PAYLOAD ACTIVE UNKNOWN

§ Identity

Operator
Country
US
Launch date
2021-05-04
Launch site
AFETR
Launch vehicle
Mass (kg)
RCS (m²)

Purposes: comms

External: N2YO · Heavens-Above · Gunter

§ Orbital elements

Epoch: 2026-09-19T06:25:32.800800Z

Period
94.01 min
Inclination
53.1625°
Eccentricity
0.0001146
Mean motion
15.31695980 rev/d
Perigee alt
470.0 km
Apogee alt
471.5 km
Semi-major
6,848.9 km
B*
2.5984e-5
RAAN
177.2324°
Arg perigee
97.9694°
Mean anomaly
262.1437°
Rev number
29,674

§ Raw data

STARLINK-26351 48355U 21038C   26262.26774075  .00000441  00000+0  25984-4 0  99952 48355  53.1625 177.2324 0001146  97.9694 262.1437 15.31695980296741

JSON: /api/v1/satellites/48355 · /tle

For live sub-satellite position, see the globe view (requires WebGL).

§ Visibility from observer

Set your observer location to see the next 7 days of passes ≥ 10°. The values pass through the URL so the page stays shareable.

No JS? Fill the form by hand. The geolocation button needs JavaScript.